Regional Weather Roundup
Issued by NWS

Home | Current Version | Previous Version | Text Only | Print | Product List | Glossary On
Versions: 1 2 3 4 5 6 7 8 9 10 11 12 13 14 15 16 17 18 19 20 21 22 23 24 25 26 27 28 29 30 31 32 33 34 35 36 37 38 39 40 41 42 43 44 45 46 47 48 49 50
000
ASUS43 KMKX 261121
RWRWI

WISCONSIN REGIONAL WEATHER ROUNDUP
NATIONAL WEATHER SERVICE MILWAUKEE/SULLIVAN WI
600 AM CDT TUE JUL 26 2016

NOTE: "FAIR" INDICATES FEW OR NO CLOUDS BELOW 12,000 FEET WITH NO
SIGNIFICANT WEATHER AND/OR OBSTRUCTIONS TO VISIBILITY.

WIZ001-002-006>008-014>016-023>028-261200-
NORTHWEST WISCONSIN

CITY           SKY/WX    TMP DP  RH WIND       PRES   REMARKS
SUPERIOR ARPT  CLOUDY    68  65  90 SW5       29.98S
ASHLAND        PTCLDY    68  64  87 SW8       30.01R
HAYWARD        CLEAR     59  57  93 NE3       30.05R
SIREN          CLOUDY    70  63  78 S7        30.03S
CUMBERLAND     CLEAR     61  61 100 CALM      30.06R
RICE LAKE      FOG       61  60  96 CALM      30.07R VSB 1/4
CHETEK         CLEAR     62  62 100 CALM      30.06R
LADYSMITH      CLEAR     60  59  96 CALM      30.08R
EAU CLAIRE     CLEAR     64  63  96 CALM      30.05R
MENOMONIE      PTCLDY    63  62  96 CALM      30.06R
NEW RICHMOND   CLEAR     67  64  92 S6        30.05S
OSCEOLA        PTCLDY    66  66 100 S6        30.06S
$$

WIZ003>005-009-010-017-018-261200-
NORTH CENTRAL WISCONSIN

CITY           SKY/WX    TMP DP  RH WIND       PRES   REMARKS
MANITOWISH WTR CLEAR     57  57 100 CALM      30.06S FOG
ARBOR VITAE    CLEAR     62  60  95 CALM      30.07R
WOODRUFF       CLEAR     62  60  95 CALM      30.07R
RHINELANDER    CLEAR     61  59  93 W6        30.08R
EAGLE RIVER      N/A     57  57 100 CALM      30.06R FOG
LAND O LAKES   PTCLDY    53  53 100 CALM      30.07R FOG
PHILLIPS       CLEAR     62  61  98 CALM      30.07R
TOMAHAWK       CLEAR     55  54  95 CALM      30.08R
MEDFORD        CLEAR     59  59 100 CALM      30.08S
MERRILL        CLEAR     55  55 100 CALM      30.08S
$$

WIZ029-030-035-036-043>047-261200-
CENTRAL WISCONSIN

CITY           SKY/WX    TMP DP  RH WIND       PRES   REMARKS
WAUSAU         CLEAR     61  60  97 CALM      30.06R
MOSINEE        CLEAR     61  61 100 CALM      30.08S
MARSHFIELD     CLEAR     63  60  90 W5        30.07S
STEVENS POINT  CLEAR     56  56  99 CALM      30.08R
WAUPACA        CLEAR     63  63  99 CALM      30.06S
WAUTOMA        NOT AVBL
WISC RAPIDS    CLEAR     61  59  93 CALM      30.08S FOG
CAMP DOUGLAS   FOG       55  55 100 SE1       30.07S VSB 1/4
$$

WIZ011>013-019>022-031-037>040-048>050-261200-
NORTHEAST WISCONSIN

CITY           SKY/WX    TMP DP  RH WIND       PRES   REMARKS
ANTIGO         CLEAR     56  56 100 CALM      30.08S
SHAWANO        PTCLDY    63  61  93 W3        30.05S
OCONTO         CLEAR    N/A N/A N/A CALM      30.03S
STURGEON BAY   CLEAR     65  64  97 W5        30.04S
GREEN BAY      CLEAR     62  62 100 CALM      30.04S
MANITOWOC      CLEAR     65  60  84 CALM      30.05R
APPLETON       CLEAR     63  61  94 VRB3      30.04S
CLINTONVILLE   PTCLDY    63  61  94 CALM      30.05S
OSHKOSH        CLEAR     64  61  90 CALM      30.06R
$$

WIZ032>034-041-042-053>061-261200-
SOUTHWEST WISCONSIN

CITY           SKY/WX    TMP DP  RH WIND       PRES   REMARKS
LA CROSSE      MOCLDY    68  66  93 SE6       30.07R FOG
SPARTA         PTCLDY    55  55 100 CALM      30.08S
VIROQUA        CLEAR     64  64 100 CALM      30.09S
BOSCOBEL       FOG       64  64 100 S3        30.09R VSB 1/4
PRAIRIE DU CHI CLOUDY    64  63  95 CALM      30.08S FOG
PLATTEVILLE    CLEAR     63  63 100 CALM      30.09S
$$

WIZ056-057-062-063-064-067-068-261200-
SOUTH CENTRAL WISCONSIN

CITY           SKY/WX    TMP DP  RH WIND       PRES   REMARKS
REEDSBURG      CLEAR     60  60 100 CALM      30.08S
BARABOO/DELLS  CLEAR     61  59  94 S3        30.09R
LONE ROCK      FOG       63  62  97 CALM      30.09R VSB<1/4
MINERAL POINT  CLEAR     64  63  94 CALM      30.09S
MADISON        PTCLDY    64  62  93 CALM      30.08R
MIDDLETON        N/A     63  63 100 CALM      30.09R VSB 1/4
WATERTOWN      PTCLDY    61  61 100 CALM      30.08R
MONROE         CLEAR     68  61  77 N5        30.09R
JANESVILLE     FOG       64  63  94 CALM      30.08R VSB 3/4
$$

WIZ051-052-058>065-066-070>072-261200-
SOUTHEAST WISCONSIN

CITY           SKY/WX    TMP DP  RH WIND       PRES   REMARKS
MILWAUKEE      PTCLDY    70  62  76 CALM      30.06R
WAUKESHA       CLEAR     64  63  94 W5        30.08S
MILWAUKEE/TIMM CLEAR     64  59  82 CALM      30.07S
RACINE         CLEAR     67  63  87 CALM      30.08R
BURLINGTON     CLEAR     60  60  99 CALM      30.08R
KENOSHA        CLEAR     65  62  90 NW5       30.07R
FOND DU LAC    CLEAR     63  60  90 SW3       30.07S
SHEBOYGAN      PTCLDY    64  62  93 CALM      30.06R
WEST BEND      PTCLDY    61  61 100 CALM      30.07S FOG
JUNEAU         PTCLDY    61  61  99 CALM      30.09R FOG
$$

LSZ147-162-261200-
LAKE SUPERIOR

STATION/POSITION TIME  TEMP    WIND        PRES    WAVE
                       AIR SEA DIR/SP/G            HT/PER
                 (UTC) (F)     (DEG/KT/KT) (MB)    (FT/S)
W MID LAKE BUOY  1050   63 60  230/  8/ 10 1014.7R   0
DEVILS ISLAND    1100   69     220/ 12/ 13 1015.0F
SAXON HARBOR     1040   69     190/  7/ 11 1015.6R
$$

LMZ867-665-643>646-261200-
LAKE MICHIGAN

STATION/POSITION TIME  TEMP    WIND        PRES    WAVE
                       AIR SEA DIR/SP/G            HT/PER
                 (UTC) (F)     (DEG/KT/KT) (MB)    (FT/S)
CHAMBERS ISLAND  1000   66     240/  3/  5 1016.6R
S GREEN BAY BUOY 1100   70 74  240/  6/  6   N/A
N MID LAKE BUOY  1050   70 69  250/  8/  8 1015.5R   1
NORTHPORT PIER   1000   68     280/  3/  5 1016.3R
SISTER BAY       1021   71     320/  7/  8   N/A
ALGOMA LAKESHORE 1013          320/  6/  7   N/A
KEWAUNEE LAKESHO 1000   65     300/  5/  5 1016.3R
SHEBOYGAN LAKESH 1100   69     270/  1/  2 1017.6R
PORT WASHINGTON  1000   70     300/  8/ 10 1018.3
ATWATER BUOY     1100   63 58   CALM  /  2 1019.5R
MILWAUKEE LAKESH 1010   70     140/  1/  1   N/A
S MID LAKE BUOY  1050   74 73  260/  6/  8 1017.1R   0
KENOSHA   LAKESH 1100   71     310/  4/  5 1017.9R
$$

TC  - TEMPERATURE IN CELSIUS
VSB - VISIBILITY IN STATUTE MILES
WCI - WIND CHILL INDEX
HX  - HEAT INDEX





USA.gov is the U.S. government's official web portal to all federal, state and local government web resources and services.